カタログに戻る

COSMOS 445

運用中軍事LEO
NORAD 5548·PAYLOAD·🇷🇺 Russia

打ち上げ Oct 13, 1971 から Plesetsk Cosmodrome

Loading…

次のパス (今後24時間)

TLE

最新Source: Space-Track

元期: Sep 14, 2026, 04:32 UTC

1 05548U 71086B   26257.18948981  .00000014  00000-0  17077-3 0  9994
2 05548  74.0294 168.0342 0102575 104.4607  47.5047 12.58230145522418

AllMySatでCOSMOS 445をリアルタイム追跡

Download on the App Store